Location: Bodest
(46.3000°N, 22.5667°E)
Time: 00:41:11
(UTC+00:00)

FENGYUN 1C DEB - Pass Details

Date: 04 April 2023
Orbit: 806 x 916 km, 98.8° (Epoch: 29 May)

Event Time Altitude Azimuth Distance (km) Brightness Sun altitude
Rises 18:00:56 0° 169° (S) 3,539 ? -10.7°
Reaches altitude 10° 18:03:22 10° 171° (S) 2,597 ? -11.1°
Maximum altitude 18:09:10 74° 257° (WSW) 944 ? -12.0°
Drops below altitude 10° 18:14:55 10° 342° (NNW) 2,566 ? -12.9°
Sets 18:17:19 0° 345° (NNW) 3,495 ? -13.3°
